sat.trackr.live / text

‹ back to catalog

STARLINK-3265

NORAD 50180 · 2021-125AA

PAYLOAD ACTIVE UNKNOWN

§ Identity

Operator
Country
US
Launch date
2021-12-18
Launch site
AFWTR
Launch vehicle
Mass (kg)
RCS (m²)

Purposes: comms

External: N2YO · Heavens-Above · Gunter

§ Orbital elements

Epoch: 2026-09-09T23:04:56.710272Z

Period
94.01 min
Inclination
53.1587°
Eccentricity
0.0001190
Mean motion
15.31692368 rev/d
Perigee alt
469.9 km
Apogee alt
471.6 km
Semi-major
6,848.9 km
B*
2.7445e-5
RAAN
130.8335°
Arg perigee
82.9518°
Mean anomaly
277.1619°
Rev number
26,461

§ Raw data

STARLINK-32651 50180U 21125AA  26252.96176748  .00000486  00000+0  27445-4 0  99932 50180  53.1587 130.8335 0001190  82.9518 277.1619 15.31692368264618

JSON: /api/v1/satellites/50180 · /tle

For live sub-satellite position, see the globe view (requires WebGL).

§ Visibility from observer

Set your observer location to see the next 7 days of passes ≥ 10°. The values pass through the URL so the page stays shareable.

No JS? Fill the form by hand. The geolocation button needs JavaScript.